星链-5514 (STARLINK-5514 )

导读

STARLINK-5514是美国SpaceX公司星链(Starlink)卫星互联网星座的一员,于2023年7月7日发射入轨,运行在近地轨道,属于星链大规模星座部署中的一颗卫星。星链项目旨在为全球提供高速低延迟互联网服务,尤其覆盖地面网络难以抵达的偏远区域,该卫星助力星链扩展全球网络覆盖,推动项目持续完善星座布局,服务家庭、商业及应急通信等多场景需求。

基本信息
目录编号:
57248
目录名称:
STARLINK-5514
国际标识:
2023-094AG
轨道中心:
EARTH
卫星名称:
星链-5514
卫星全名:
星链-5514 (STARLINK-5514 )
卫星状态:
在轨 (已飞行1155 天)
发射日期:
2023-07-07 UTC
国别 :
美国 (US)
星等 :
--
轨道信息
数据来源 国际轨道数据
星历时间: 2026-09-03T22:33:59+0800
23小时前
查看轨道信息
半长轴: 6861.201km
偏心率: 0.0001086
轨道倾角: 43.003°
近地点辐角 254.554°
升交点赤经 94.800°
平近点角 105.519°
近地点: 482.318km
远地点: 483.81km
周期: 94.267分钟
每日圈数: 15.275753
详细信息
固有亮度:
5
最大亮度:
2.4
卫星平台:
Starlink v1.5
覆盖范围:
全球
运营商:
太空探索技术公司
运营商所在国:
美国
制造商(研发单位):
太空探索技术公司
制造商所在国:
美国
使用方式:
暂无
卫星简介
星链(Starlink)计划是由太空探索技术公司(SpaceX)提出的一个巨型低轨卫星互联网星座项目,计划在2019年至2024年间在太空搭建由约1.2万颗卫星组成的“星链”网络,其中1584颗将部署在地球上空550千米处的近地轨道,并从2020年开始工作。该卫星仍在工作。
2D轨道图
3D轨道图
轨道高度分析图
轨道倾角分析图
轨道综合分析图
查看轨道综合分析图
交会数据列表
事件ID 空间交会对象 最接近时刻(TCA) 交会距离 交会风险概率(CRP) 交会风险指数(CRI) 操作
CDM_260906-073605-308605-724821
2026-09-06T
07:36:38+0000
2.119 km
极远距离
1.587728E-6 低风险 0.39
CDM_260906-043205-724806-309621
2026-09-06T
04:32:44+0000
2.861 km
极远距离
1.30322E-6 低风险 0.37